STARLINK-3742, 52303

Orbit data source: Space-Track

STARLINK-3742, 52303 is a payload satellite owned by SpaceX/Seattle (US) in LEO that was launched on Thu, 21 Apr 2022 UTC via an FALCON 9 launch vehicle from the Air Force Eastern Test Range (AFETR). Payload-class satellites include a variety of spacecraft equipped with specific instruments for various scientific and technological missions. These include communications satellites like Starlink; space stations such as the ISS; scientific satellites like the Hubble; Earth observation satellites from companies like Planet Labs, Umbra, and HawkEye 360; GPS; miniature CubeSats for education and research; and military/defense satellites.

Loading next visibility...
Identifier
52303, 2022-041AU
Orbit
LEO
Country
Flag of USUS
Related business
Manufacturer
SpaceX/Seattle
Mission
Operational Commercial Communications
Bus & Motor
STARLINK, Unknown motor
Mass
297 kg wet, ~275 kg dry
Launch date (UTC)
2022-04-21 (4 years ago)
Launch vehicle
FALCON 9
Launch site
Air Force Eastern Test Range (AFETR)
Object type
Payload
Rocket body
Debris
Shape & HBR
Box + 1 Pan, 10.1 m
Radar Cross Section
11.087 m², Large (>1 m²)

Expand to show TLE details & history
Last TLE update: 18 hours ago

TLE from 18 hours ago
0 STARLINK-3742
1 52303U 22041AU  26175.17536398  .00000517  00000-0  50563-4 0  9991
2 52303  53.1605 340.9503 0001353  87.7492 272.3655 15.08832358231805
Epoch: 2026-06-24T04:12Z
TLE epoch observation values (Epoch: 2026-06-24T04:12:31.447Z)
Latitude
0.00001°
Longitude
5.48293°
Altitude
540.62 km
Speed
7.593 km/s
True Right ascension
22h 43m 48s
True Declination
0° 00' 00"
Sunlit
Object was in daylight at epoch
Visualization orbit readout
Latitude
Unknown
Longitude
Unknown
Altitude
Unknown
Speed
Unknown
Apparent Right ascension
Unknown
Apparent Declination
Unknown
Sunlit
N/A
Visualization observer readout
Local Sidereal Time
08:55:09
Azimuth
Unknown
Elevation
Unknown
Doppler factor
Unknown
Orbital elements
Apogee altitude
540.957 km
Perigee altitude
539.085 km
Semi-major axis
6,918.158 km
Eccentricity
0.00014
Inclination
53.1605°
RAAN
340.9503°
Arg. of periapsis
87.7492°
True anomaly
272.35001°
Mean anomaly
272.3655°
Eccentric anomaly
272.35775°
Mean motion
3.77188 °/min
Orbital period
95.44 mins
BSTAR
0.000050563
Loading maneuver chart data...
Computing Atmospheric mass density...

Documentation

Showing up to 5 results
|